Weather History for PADQ - December, 2012

Change the Weather History Date:

Thursday, December 27, 2012

  Actual Average Record
Temperature  
Mean Temperature 38 °F 31 °F  
Max Temperature 40 °F 36 °F 48 °F (1951)
Min Temperature 35 °F 26 °F 4 °F (1970)
Degree Days  
Heating Degree Days 27 34  
Month to date heating degree days 1010 913  
Since 1 July heating degree days 3935 3705  
Cooling Degree Days 0    
Month to date cooling degree days 0  
Year to date cooling degree days 0  
Moisture  
Dew Point 37 °F    
Average Humidity 0    
Maximum Humidity 0    
Minimum Humidity 0    
Precipitation  
Precipitation 0.35 in 0.28 in 1.65 in (1960)
Month to date precipitation 3.54 7.62  
Year to date precipitation 55.84 76.89  
Snow  
Snow 0.00 in 0.40 in 5.80 in (2006)
Month to date snowfall 8.5 12.3  
Since 1 July snowfall 16.4 19.8  
Snow Depth T in    
Sea Level Pressure  
Sea Level Pressure 29.07 in    
Wind  
Wind Speed 12 mph (NE)    
Max Wind Speed 29 mph    
Max Gust Speed 33 mph    
Visibility 6 miles    
Events Rain    
T = Trace of Precipitation, MM = Missing Value Source: NWS Daily Summary

Daily Weather History Graph

Daily Weather History Graph

Search for Another Location

Airport or City:

Trip Planner

Search our weather history database for the weather conditions in past years. The results will help you decide how hot, cold, wet, or windy it might be!

Date:

Astronomy

Dec. 27, 2012 Rise Set
Actual Time 9:54 AM AKST 4:28 PM AKST
Civil Twilight 9:03 AM AKST 5:19 PM AKST
Nautical Twilight 8:11 AM AKST 6:11 PM AKST
Astronomical Twilight 7:23 AM AKST 6:59 PM AKST
Moon 4:30 PM AKST (12/27) 9:04 AM AKST (12/27)
Length of Visible Light 8h 16m
Length of Day
6h 34m
Full, 100% of the Moon is Illuminated
Dec 27
Full
Dec 28
Full
Jan 4
Last Quarter
Jan 11
New
Jan 18
First Quarter

Hourly Weather History & Observations

Time (AKST) Temp. Windchill Dew Point Humidity Pressure Visibility Wind Dir Wind Speed Gust Speed Precip Events Conditions
12:00 AM 39.2 °F 28.3 °F 39.2 °F 100% 28.93 in 6.0 mi East 25.3 mph 31.1 mph 0.00 in Rain Light Rain
12:34 AM 39.2 °F 29.3 °F 39.2 °F 100% 28.93 in 6.0 mi East 20.7 mph - 0.02 in Rain Light Rain
12:53 AM 39.9 °F 30.2 °F 39.0 °F 97% 28.94 in 6.0 mi East 20.7 mph - 0.03 in Rain Light Rain
1:53 AM 39.9 °F 30.2 °F 39.0 °F 97% 28.95 in 5.0 mi East 20.7 mph - 0.04 in Rain Light Rain
2:45 AM 39.2 °F 29.0 °F 37.4 °F 93% 28.95 in 6.0 mi East 21.9 mph - 0.03 in Rain Light Rain
2:53 AM 39.0 °F 29.0 °F 37.9 °F 96% 28.95 in 6.0 mi East 20.7 mph - 0.03 in Rain Light Rain
3:03 AM 39.2 °F 29.0 °F 37.4 °F 93% 28.95 in 4.0 mi East 21.9 mph - 0.01 in Rain Rain
3:53 AM 39.0 °F 28.8 °F 37.9 °F 96% 28.96 in 5.0 mi East 21.9 mph 31.1 mph 0.05 in Rain Light Rain
4:12 AM 37.4 °F 27.2 °F 37.4 °F 100% 28.96 in 6.0 mi East 19.6 mph - 0.03 in Rain Light Rain
4:53 AM 39.0 °F 28.5 °F 37.0 °F 93% 28.96 in 8.0 mi East 23.0 mph 31.1 mph 0.06 in Rain Light Rain
5:36 AM 39.2 °F 29.8 °F 37.4 °F 93% 28.97 in 8.0 mi East 18.4 mph - 0.01 in   Overcast
5:48 AM 39.2 °F 29.8 °F 37.4 °F 93% 28.97 in 7.0 mi East 18.4 mph - 0.01 in   Overcast
5:53 AM 39.0 °F 29.3 °F 37.9 °F 96% 28.97 in 7.0 mi East 19.6 mph - 0.01 in   Overcast
6:23 AM 39.2 °F 31.2 °F 37.4 °F 93% 28.97 in 7.0 mi ENE 13.8 mph - 0.00 in Rain Light Rain
6:53 AM 39.0 °F 31.8 °F 37.0 °F 93% 28.98 in 9.0 mi ENE 11.5 mph - 0.00 in   Overcast
7:27 AM 39.2 °F 30.2 °F 37.4 °F 93% 28.98 in 8.0 mi East 17.3 mph 23.0 mph N/A   Overcast
7:53 AM 39.0 °F 30.3 °F 37.0 °F 93% 28.98 in 9.0 mi ENE 16.1 mph 21.9 mph 0.01 in   Overcast
8:53 AM 39.0 °F 30.6 °F 37.0 °F 93% 29.00 in 10.0 mi ENE 15.0 mph - 0.00 in   Overcast
9:53 AM 39.0 °F 30.6 °F 37.0 °F 93% 29.02 in 8.0 mi NE 15.0 mph - 0.01 in   Overcast
10:53 AM 39.9 °F 30.5 °F 37.9 °F 93% 29.03 in 5.0 mi NE 19.6 mph - 0.00 in Rain Light Rain
11:53 AM 39.0 °F 30.3 °F 37.9 °F 96% 29.04 in 10.0 mi NE 16.1 mph - 0.01 in Rain Light Rain
12:53 PM 39.0 °F 31.4 °F 37.9 °F 96% 29.04 in 5.0 mi NE 12.7 mph - 0.01 in Rain Light Rain
1:53 PM 39.0 °F 31.8 °F 37.9 °F 96% 29.05 in 10.0 mi NE 11.5 mph - 0.01 in Rain Light Rain
2:53 PM 37.9 °F 33.5 °F 37.0 °F 97% 29.07 in 5.0 mi NNE 5.8 mph - 0.00 in Rain Light Rain
3:53 PM 37.9 °F 32.1 °F 37.0 °F 97% 29.09 in 5.0 mi NE 8.1 mph - 0.01 in Rain Light Rain
4:10 PM 37.4 °F 34.9 °F 37.4 °F 100% 29.10 in 2.5 mi North 3.5 mph - 0.00 in Rain Light Rain
4:32 PM 37.4 °F 32.8 °F 37.4 °F 100% 29.10 in 1.5 mi North 5.8 mph - 0.02 in Rain Light Rain
4:53 PM 37.9 °F 33.5 °F 37.9 °F 100% 29.12 in 1.5 mi North 5.8 mph - 0.03 in Rain Light Rain
4:55 PM 39.2 °F 35.0 °F 37.4 °F 93% 29.11 in 4.0 mi North 5.8 mph - 0.00 in Rain Light Rain
5:29 PM 37.4 °F 32.1 °F 37.4 °F 100% 29.12 in 2.0 mi NW 6.9 mph - 0.01 in Rain Light Rain
5:53 PM 37.9 °F 32.1 °F 37.9 °F 100% 29.12 in 2.0 mi NW 8.1 mph - 0.02 in Rain Light Rain
6:00 PM 37.4 °F 32.1 °F 37.4 °F 100% 29.12 in 5.0 mi NNW 6.9 mph - 0.00 in Rain Light Rain
6:53 PM 37.0 °F - 37.0 °F 100% 29.15 in 3.0 mi Calm Calm - 0.01 in Rain Light Rain
7:46 PM 37.4 °F 33.8 °F 35.6 °F 93% 29.17 in 2.0 mi West 4.6 mph - 0.01 in Rain Light Rain
7:53 PM 36.0 °F 32.1 °F 36.0 °F 100% 29.18 in 2.0 mi West 4.6 mph - 0.01 in Rain Light Rain
8:00 PM 35.6 °F 31.7 °F 35.6 °F 100% 29.17 in 3.0 mi West 4.6 mph - 0.00 in Rain Light Rain
8:53 PM 36.0 °F 33.3 °F 36.0 °F 100% 29.21 in 3.0 mi WSW 3.5 mph - 0.00 in Rain Light Rain
9:33 PM 35.6 °F 30.7 °F 35.6 °F 100% 29.22 in 4.0 mi West 5.8 mph - 0.00 in   Overcast
9:53 PM 36.0 °F 32.1 °F 36.0 °F 100% 29.23 in 4.0 mi WNW 4.6 mph - 0.00 in   Overcast
10:53 PM 36.0 °F 33.3 °F 36.0 °F 100% 29.26 in 4.0 mi West 3.5 mph - 0.00 in Rain Light Rain
11:16 PM 35.6 °F - 35.6 °F 100% 29.26 in 6.0 mi Calm Calm - N/A   Overcast
11:41 PM 35.6 °F 32.8 °F 35.6 °F 100% 29.27 in 6.0 mi WSW 3.5 mph - N/A   Overcast
11:53 PM 36.0 °F 32.1 °F 36.0 °F 100% 29.29 in 6.0 mi SW 4.6 mph - N/A   Overcast